Location: Ceske Budejovice
(48.9830°N, 14.4670°E)
Time: 14:14:51
(UTC+02:00)

DX 1 - Pass Details

Date: 28 August 2019
Orbit: 620 x 630 km, 98.4° (Epoch: 20 September)

Event Time Altitude Azimuth Distance (km) Brightness Sun altitude
Rises 05:34:58 0° 204° (SSW) 2,885 ? -6.6°
Reaches altitude 10° 05:37:42 10° 222° (SW) 1,986 ? -6.2°
Maximum altitude 05:40:46 19° 268° (W) 1,495 ? -5.7°
Drops below altitude 10° 05:43:52 10° 314° (NW) 2,001 ? -5.3°
Sets 05:46:39 0° 332° (NNW) 2,916 ? -4.8°
